Regional Weather Roundup
Issued by NWS

Home | Current Version | Previous Version | Graphics & Text | Print | Product List | Glossary Off
Versions: 1 2 3 4 5 6 7 8 9 10 11 12 13 14 15 16 17 18 19 20 21 22 23 24 25 26 27 28 29 30 31 32 33 34 35 36 37 38 39 40 41 42 43 44 45 46 47 48 49 50

000
ASUS43 KTOP 230959
RWRKS

WEATHER ROUNDUP FOR KANSAS
NATIONAL WEATHER SERVICE GOODLAND KS
500 AM CDT TUE MAY 23 2017

NOTE:  "FAIR" INDICATES FEW OR NO CLOUDS BELOW 12,000 FEET WITH NO
SIGNIFICANT WEATHER AND/OR OBSTRUCTIONS TO VISIBILITY.

KSZ001>006-013>018-027>032-041>047-231100-
NORTHWEST KANSAS

CITY           SKY/WX    TMP DP  RH WIND       PRES   REMARKS
GOODLAND       CLOUDY    41  39  93 NW17      30.12F
HAYS           PTCLDY    48  45  89 NW10      30.04S
HILL CITY      CLEAR     47  45  93 NW8       30.07F
RUSSELL        MOCLDY    49  45  86 NW10      30.01R
$$

KSZ061>065-074>080-084>089-231100-
SOUTHWEST KANSAS

CITY           SKY/WX    TMP DP  RH WIND       PRES   REMARKS
DODGE CITY     CLOUDY    48  45  89 N12       30.06R
ELKHART          N/A     47  37  68 NW8         N/A
GARDEN CITY    CLOUDY    47  43  86 NW13      30.10R
GREAT BEND     PTCLDY    49  45  86 NW12      30.01S
LIBERAL        CLOUDY    51  47  86 NW13      30.11S
$$

KSZ066>073-081>083-090>101-231100-
SOUTHEAST KANSAS

CITY           SKY/WX    TMP DP  RH WIND       PRES   REMARKS
CHANUTE        MOCLDY    58  55  90 NW7       29.87S
COFFEYVILLE    CLOUDY    60  59  96 NW7       29.88S
HUTCHINSON     CLOUDY    53  50  89 N15G23    29.94R
MEDICINE LODGE   N/A     55  49  80 N16G25    29.95R
NEWTON         CLOUDY    53  49  86 N17       29.92R
PARSONS        PTCLDY    57  55  93 NW6       29.88F
WICHITA INTL   CLOUDY    55  53  93 N13       29.92R
WICHITA JABRA  MOCLDY    54  52  93 N10       29.92R
WICHITA MCCONL MOCLDY    54  51  87 N10       29.91R
WINFIELD       FOG       55  55 100 NW3       29.91R VSB 1/4
$$

KSZ007>012-019>026-033>040-048>060-102>105-231100-
NORTHEAST KANSAS

CITY           SKY/WX    TMP DP  RH WIND       PRES   REMARKS
CONCORDIA      MOCLDY    51  50  96 NW9       29.97R
EMPORIA        CLOUDY    55  52  89 N14G21    29.88F
LAWRENCE       CLOUDY    56  56 100 W7        29.87F FOG
MANHATTAN      LGT RAIN  54  51  90 VRB5      29.92S
OLATHE IND     CLOUDY    55  54  96 SW5       29.86F FOG
OLATHE EXE     CLOUDY    54  54 100 W6        29.86F FOG
SALINA         CLOUDY    54  51  90 W7        29.96R
TOPEKA BILLARD LGT RAIN  55  54  96 NW8       29.89S
TOPEKA FORBES  MOCLDY    56  53  90 NW15      29.89S
$$




USA.gov is the U.S. government's official web portal to all federal, state and local government web resources and services.